Location: �couen
(49.0206°N, 2.3831°E)
Time: 22:45:10
(UTC+00:00)

ATLAS 3B R/B - Pass Details

Date: 26 May 2022
Orbit: 976 x 1218 km, 63.8° (Epoch: 20 June)

Event Time Altitude Azimuth Distance (km) Brightness Sun altitude
Rises 20:56:37 0° 317° (NW) 3,923 8.0 -10.1°
Reaches altitude 10° 20:59:17 10° 321° (NW) 2,997 6.7 -10.4°
Maximum altitude 21:06:25 62° 42° (NE) 1,295 3.2 -11.1°
Enters shadow 21:13:22 12° 122° (ESE) 2,959 4.4 -11.8°
